Flag for Brazil Weather past 2 weeks in Rio Branco, Acre, Brazil

Now
70 °F

Clear.


Feels Like: 70 °F
Forecast: 69 / 92 °F
Wind: 2 mph from North

Location: Rio Branco Airport

Current Time: Aug 30, 2014 at 4:04:33 AM

Latest Report: Aug 30, 2014 at 3:00 AM


Visibility: 10 mi

Pressure: 29.95 "Hg

Humidity: 88%

Dew point: 66 °F

Location of Rio BrancoLocation

Historic Weather in Rio Branco — Graph

°F

Rio Branco temperature yesterday

Maximum temperature yesterday: 90 °F (at 4:00 PM)
Minimum temperature yesterday: 64 °F (at 5:00 AM)
Average temperature yesterday: 77 °F

Past Weeks' High & Low Weather Summary

 TemperatureHumidityPressure
High93 °F (Aug 18, 1:00 PM)94% (Aug 15, 11:00 PM)30.12 "Hg (Aug 15, 11:00 PM)
Low57 °F (Aug 15, 6:00 AM)24% (Aug 18, 1:00 PM)29.74 "Hg (Aug 24, 5:00 PM)
Average77 °F65%29.93 "Hg
* Reported Aug 15 3:00 AM — Aug 30 3:00 AM, Rio Branco, Weather by CustomWeather, © 2014

Note: Actual official high and low records may vary slightly from our data, if they occured in-between our weather recording intervals... More about our weather records

Advertising

Rio Branco weather history for previous 24 hours

 ConditionsComfort  
Time TempWeatherWind HumidityBarometerVisibility
3:00 AM
Aug 30
70 °FClear.2 mph88%29.95 "Hg10 mi
2:00 AM72 °FClear.3 mph88%29.95 "Hg10 mi
1:00 AM73 °FClear.3 mph83%29.95 "Hg10 mi
12:00 AM73 °FClear.2 mph83%29.98 "Hg10 mi
11:00 PM
Aug 29
73 °FClear.2 mph83%29.98 "Hg10 mi
10:00 PM75 °FPassing clouds.3 mph78%29.98 "HgN/A
9:00 PM75 °FPassing clouds.2 mph78%29.95 "HgN/A
8:00 PM77 °FPassing clouds.2 mph74%29.92 "HgN/A
7:00 PM79 °FPassing clouds.2 mph70%29.89 "HgN/A
6:00 PM84 °FPartly sunny.2 mph55%29.89 "HgN/A
5:00 PM88 °FPassing clouds.2 mph49%29.86 "HgN/A
4:00 PM90 °FPassing clouds.2 mph43%29.86 "HgN/A
2:00 PM88 °FScattered clouds.2 mph49%29.92 "Hg5 mi
1:00 PM88 °FScattered clouds.2 mph46%29.95 "Hg5 mi
12:00 PM86 °FScattered clouds.2 mph49%29.98 "Hg5 mi
11:00 AM86 °FScattered clouds.7 mph52%30.01 "Hg5 mi
10:00 AM84 °FClear.7 mph55%30.04 "Hg5 mi
9:00 AM81 °FClear.5 mph58%30.04 "Hg5 mi
8:00 AM77 °FClear.1 mph65%30.01 "Hg5 mi
7:00 AM68 °FSunny.2 mph88%30.01 "Hg10 mi
6:00 AM64 °FFog.1 mph94%29.98 "Hg3 mi
5:00 AM64 °FClear.No wind94%29.95 "Hg10 mi
4:00 AM66 °FClear.1 mph88%29.95 "Hg10 mi
Weather by CustomWeather, © 2014

See weather overviewHow to use our weather pages